Regional Weather Roundup
Issued by NWS Green Bay, WI

Home | Current Version | Previous Version | Text Only | Print | Product List | Glossary On
Versions: 1 2 3 4 5 6 7 8 9 10 11 12 13 14 15 16 17 18 19 20 21 22 23 24 25 26 27 28 29 30 31 32 33 34 35 36 37 38 39 40 41 42 43 44 45 46 47 48 49 50
000
ASUS43 KGRB 311811
RWRGRB

NORTH-CENTRAL AND NORTHEAST WISCONSIN REGIONAL WEATHER ROUNDUP
NATIONAL WEATHER SERVICE GREEN BAY WI
100 PM CDT MON AUG 31 2015

WIZ005-009-010>012-018-019-311900-
NORTH CENTRAL WISCONSIN

CITY           SKY/WX    TMP DP  RH WIND       PRES   REMARKS
IRONWOOD       SUNNY     81  64  57 S14       29.90F
MANITOWISH WTR SUNNY     77  66  68 S9        29.99S
ARBOR VITAE    SUNNY     77  65  67 S9        30.00S
EAGLE RIVER    SUNNY     77  61  57 SW10      30.00F
LAND O LAKES   SUNNY     80  61  53 SW10      30.00S
RHINELANDER    SUNNY     75  63  66 SW10      30.02F
PHILLIPS       CLOUDY    71  66  84 SW10      30.00F
ANTIGO         CLOUDY    72  66  81 SW8       30.04F
TOMAHAWK       SUNNY     73  64  73 S5        30.02F
MERRILL        CLOUDY    71  66  83 SW7       30.03F
$$

WIZ013-073-311900-
NORTHEAST WISCONSIN

CITY           SKY/WX    TMP DP  RH WIND       PRES   REMARKS
IRON MOUNTAIN  SUNNY     82  64  54 S7        29.97F
MARINETTE      MOSUNNY   73  63  68 SW8       30.00F
OCONTO         PTSUNNY   74  68  80 SW9       30.01F
$$

WIZ017-030-035>037-045-311900-
CENTRAL WISCONSIN

CITY           SKY/WX    TMP DP  RH WIND       PRES   REMARKS
MEDFORD        CLOUDY    71  66  85 S8        30.03S
WAUSAU         CLOUDY    70  66  87 S7        30.02F
MOSINEE        CLOUDY    70  70 100 SW10      30.04F
MARSHFIELD     CLOUDY    72  65  78 SW9       30.03F
WISC RAPIDS    CLOUDY    75  65  70 SW8       30.04F
STEVENS POINT  CLOUDY    71  65  82 SW9       30.04F HAZE
WAUPACA        CLOUDY    78  69  74 SW3       30.03F
SHAWANO        CLOUDY    74  66  77 SW8       30.03F
CLINTONVILLE   CLOUDY    70  64  83 W7        30.03F
WAUTOMA        CLOUDY    78  68  71 W6        30.04F
$$

WIZ038-039-048-051-311900-
FOX VALLEY

CITY           SKY/WX    TMP DP  RH WIND       PRES   REMARKS
NWS GREEN BAY  CLOUDY    75  67  76 SW9       30.03F
APPLETON       PTSUNNY   73  64  73 SW12      30.04F
OSHKOSH        PTSUNNY   73  65  75 VRB7      30.04F
FOND DU LAC    CLOUDY    75  66  73 SW8       30.05F HAZE
$$

WIZ022-050-052-311900-
EAST CENTRAL WISCONSIN

CITY           SKY/WX    TMP DP  RH WIND       PRES   REMARKS
EPHRAIM        CLOUDY    66  63  90 SW9G16    30.01F
STURGEON BAY   CLOUDY    70  63  78 SW9       30.05S
MANITOWOC      CLOUDY    77  66  68 MISG      30.04F
SHEBOYGAN      PTSUNNY   77  67  71 W8        30.05F
$$

LMZ563-521-522-541>543-311900-
LAKESHORE

STATION/POSITION TIME  TEMP    WIND        PRES    VSBY  WAVE
                       AIR SEA DIR/SP/G                  HT/PER
                 (UTC) (F)     (DEG/KT/KT) (MB)    (MI)  (FT/S)
SHEBOYGAN LKSHOR 1800   65     170/ 22/ 22 1017.3F
KEWAUNEE LKSHORE 1700   51     160/  7/  9 1016.3S
NORTHPORT PIER   1700   67     240/  4/  8 1016.3F
N MID LAKE BUOY  1750   63 65  200/ 14/ 16 1016.0F         2/ 4
S GREEN BAY BUOY 1700   65 63  220/  6/  8 1018.4F
CHAMBERS ISLAND  1700   67     190/  6/ 10 1016.6
MENOMINEE LKSHOR 1700   69     200/  9/ 11 1015.4F
$$


USA.gov is the U.S. government's official web portal to all federal, state and local government web resources and services.